User: anonymous   Login
Location: Caltech
(34.1382°N, 118.1253°W)
Time: 16:42:25
(UTC-07:00)
Language:

OPAL - Orbit

View from above orbital plane
View from above orbital plane
View from above satellite
View from above satellite

Ground track
Ground track

The orbit data is extracted from the following two-line orbital elements,

1 26063U 00004C   17289.53810392 +.00000003 +00000-0 +21176-4 0  9993
2 26063 100.2254 315.7426 0036082 327.6245 032.2721 14.36677408928607
Epoch (UTC): 16 October 2017 12:54:52
Eccentricity: 0.0036082
inclination: 100.2254°
perigee height: 744 km
apogee height: 795 km
right ascension of ascending node: 315.7426°
argument of perigee: 327.6245°
revolutions per day: 14.36677408
mean anomaly at epoch: 32.2721°
orbit number at epoch: 92860

The dashed part of the orbit path shows where the satellite is in the earth's shadow,  

DLR